User: anonymous   Login
Location: Monroe
(41.9160°N, 83.3980°W)
Time: 19:52:55
(UTC-04:00)
Language:

ISS - Orbit

View from above orbital plane
View from above orbital plane
View from above satellite
View from above satellite

Ground track
Ground track

The orbit data is extracted from the following two-line orbital elements,

1 25544U 98067A   16119.85984381  .00004381  00000-0  72767-4 0  9993
2 25544  51.6444 304.0877 0001973  78.1121  60.1077 15.54362508997303
Epoch (UTC): 28 April 2016 20:38:10
Eccentricity: 0.0001973
inclination: 51.6444°
perigee height: 402 km
apogee height: 405 km
right ascension of ascending node: 304.0877°
argument of perigee: 78.1121°
revolutions per day: 15.54362508
mean anomaly at epoch: 60.1077°
orbit number at epoch: 99730

The dashed part of the orbit path shows where the satellite is in the earth's shadow,  

DLR